,,,PA_Meas_PMT16A,,PR_Meas_QMR101_102,,RH_Meas_QMH101,,SR_Meas_QMS101,,TA_Meas_QMH101,,GenWind,,GenWind,
date,time,status,PA,status,PR,status,RH,status,SR,status,TA,status,DirAvg,status,SpdAvg,
2011-11-04, 00:00:04,VALID,997.826,VALID,0,VALID,93.9969,VALID,0,VALID,23.2915,VALID,110,VALID,0.486719,
2011-11-04, 00:01:04,VALID,997.847,VALID,0,VALID,94.0045,VALID,0,VALID,23.2897,VALID,117,VALID,0.894922,
2011-11-04, 00:02:04,VALID,997.795,VALID,0,VALID,94.0045,VALID,0,VALID,23.35,VALID,117,VALID,0.841016,
2011-11-04, 00:03:04,VALID,997.783,VALID,0,VALID,93.9969,VALID,0,VALID,23.3695,VALID,117,VALID,0.976953,
2011-11-04, 00:04:04,VALID,997.77,VALID,0,VALID,93.9969,VALID,0,VALID,23.3872,VALID,121,VALID,0.907422,
2011-11-04, 00:05:04,VALID,997.772,VALID,0,VALID,94.0045,VALID,0,VALID,23.3677,VALID,121,VALID,0.901953,
2011-11-04, 00:06:04,VALID,997.746,VALID,0,VALID,93.9969,VALID,0,VALID,23.389,VALID,121,VALID,0.853906,
2011-11-04, 00:07:04,VALID,997.725,VALID,0,VALID,93.9664,VALID,0,VALID,23.3872,VALID,121,VALID,0.551562,
2011-11-04, 00:08:04,VALID,997.675,VALID,0,VALID,93.9969,VALID,0,VALID,23.389,VALID,121,VALID,0.470703,
2011-11-04, 00:09:04,VALID,997.627,VALID,0,VALID,93.9511,VALID,0,VALID,23.3677,VALID,121,VALID,0.400781,
2011-11-04, 00:10:04,VALID,997.612,VALID,0,VALID,93.9283,VALID,0,VALID,23.4085,VALID,121,VALID,0.410937,
2011-11-04, 00:11:04,VALID,997.576,VALID,0,VALID,93.9359,VALID,0,VALID,23.3872,VALID,121,VALID,0.286328,
2011-11-04, 00:12:04,VALID,997.568,VALID,0,VALID,93.9206,VALID,0,VALID,23.428,VALID,121,VALID,0.0363281,
2011-11-04, 00:13:04,VALID,997.532,VALID,0,VALID,93.8977,VALID,0,VALID,23.389,VALID,121,VALID,0,
2011-11-04, 00:14:04,VALID,997.498,VALID,0,VALID,93.9054,VALID,0,VALID,23.389,VALID,121,VALID,0,
2011-11-04, 00:15:04,VALID,997.499,VALID,0,VALID,93.8748,VALID,0,VALID,23.3092,VALID,119,VALID,0,
2011-11-04, 00:16:04,VALID,997.502,VALID,0,VALID,93.8672,VALID,0,VALID,23.311,VALID,119,VALID,0.131641,
2011-11-04, 00:17:04,VALID,997.472,VALID,0,VALID,93.8443,VALID,0,VALID,23.2897,VALID,119,VALID,0.457031,
2011-11-04, 00:18:04,VALID,997.451,VALID,0,VALID,93.8596,VALID,0,VALID,23.311,VALID,119,VALID,0.389062,
2011-11-04, 00:19:04,VALID,997.433,VALID,0,VALID,93.852,VALID,0,VALID,23.3305,VALID,119,VALID,0.347266,
2011-11-04, 00:20:04,VALID,997.4,VALID,0,VALID,93.8672,VALID,0,VALID,23.3305,VALID,119,VALID,0.409766,
2011-11-04, 00:21:04,VALID,997.357,VALID,0,VALID,93.8672,VALID,0,VALID,23.3287,VALID,119,VALID,0.364062,
2011-11-04, 00:22:04,VALID,997.343,VALID,0,VALID,93.8825,VALID,0,VALID,23.3482,VALID,119,VALID,0.214453,
2011-11-04, 00:23:04,VALID,997.319,VALID,0,VALID,93.8901,VALID,0,VALID,23.3677,VALID,119,VALID,0.566406,
2011-11-04, 00:24:04,VALID,997.312,VALID,0,VALID,93.9054,VALID,0,VALID,23.3677,VALID,119,VALID,0.879297,
2011-11-04, 00:25:04,VALID,997.292,VALID,0,VALID,93.9054,VALID,0,VALID,23.428,VALID,116,VALID,1.01563,
2011-11-04, 00:26:04,VALID,997.297,VALID,0,VALID,93.8977,VALID,0,VALID,23.4067,VALID,114,VALID,0.642578,
2011-11-04, 00:27:04,VALID,997.281,VALID,0,VALID,93.8825,VALID,0,VALID,23.389,VALID,114,VALID,0.51875,
2011-11-04, 00:28:04,VALID,997.221,VALID,0,VALID,93.8672,VALID,0,VALID,23.3677,VALID,114,VALID,0.302344,
2011-11-04, 00:29:04,VALID,997.236,VALID,0,VALID,93.852,VALID,0,VALID,23.389,VALID,114,VALID,0.210938,
2011-11-04, 00:30:04,VALID,997.203,VALID,0,VALID,93.8291,VALID,0,VALID,23.3677,VALID,114,VALID,0,
2011-11-04, 00:31:04,VALID,997.162,VALID,0,VALID,93.8138,VALID,0,VALID,23.3482,VALID,114,VALID,0,
2011-11-04, 00:32:04,VALID,997.165,VALID,0,VALID,93.7757,VALID,0,VALID,23.3695,VALID,114,VALID,0,
2011-11-04, 00:33:04,VALID,997.123,VALID,0,VALID,93.7757,VALID,0,VALID,23.3482,VALID,114,VALID,0,
2011-11-04, 00:34:04,VALID,997.117,VALID,0,VALID,93.768,VALID,0,VALID,23.3677,VALID,114,VALID,0,
2011-11-04, 00:35:04,VALID,997.121,VALID,0,VALID,93.7528,VALID,0,VALID,23.389,VALID,114,VALID,0,
2011-11-04, 00:36:04,VALID,997.09,VALID,0,VALID,93.7604,VALID,0,VALID,23.3677,VALID,114,VALID,0,
2011-11-04, 00:37:04,VALID,997.132,VALID,0,VALID,93.7528,VALID,0,VALID,23.389,VALID,114,VALID,0,
2011-11-04, 00:38:04,VALID,997.12,VALID,0,VALID,93.7451,VALID,0,VALID,23.3677,VALID,114,VALID,0,
2011-11-04, 00:39:04,VALID,997.15,VALID,0,VALID,93.7375,VALID,0.104696,VALID,23.3482,VALID,114,VALID,0,
2011-11-04, 00:40:04,VALID,997.156,VALID,0,VALID,93.7528,VALID,0,VALID,23.3677,VALID,102,VALID,0,
2011-11-04, 00:41:04,VALID,997.164,VALID,0,VALID,93.7299,VALID,0,VALID,23.3695,VALID,27,VALID,0,
2011-11-04, 00:42:04,VALID,997.16,VALID,0,VALID,93.6765,VALID,0,VALID,23.3287,VALID,21,VALID,0,
2011-11-04, 00:43:04,VALID,997.163,VALID,0,VALID,93.6612,VALID,0,VALID,23.3482,VALID,13,VALID,0,
2011-11-04, 00:44:04,VALID,997.146,VALID,0,VALID,93.646,VALID,0,VALID,23.389,VALID,13,VALID,0,
2011-11-04, 00:45:04,VALID,997.158,VALID,0,VALID,93.6307,VALID,0,VALID,23.3677,VALID,13,VALID,0,
2011-11-04, 00:46:04,VALID,997.128,VALID,0,VALID,93.5773,VALID,0,VALID,23.389,VALID,13,VALID,0,
2011-11-04, 00:47:04,VALID,997.15,VALID,0,VALID,93.562,VALID,0,VALID,23.4085,VALID,13,VALID,0,
2011-11-04, 00:48:04,VALID,997.124,VALID,0,VALID,93.5544,VALID,0,VALID,23.4475,VALID,19,VALID,0,
2011-11-04, 00:49:04,VALID,997.126,VALID,0,VALID,93.501,VALID,0,VALID,23.4458,VALID,33,VALID,0,
2011-11-04, 00:50:04,VALID,997.13,VALID,0,VALID,93.3942,VALID,0,VALID,23.4653,VALID,48,VALID,0.872656,
2011-11-04, 00:51:04,VALID,997.111,VALID,0,VALID,93.3408,VALID,0,VALID,23.5256,VALID,52,VALID,0.697266,
2011-11-04, 00:52:04,VALID,997.087,VALID,0,VALID,93.1653,VALID,0.104696,VALID,23.5238,VALID,52,VALID,0.688281,
2011-11-04, 00:53:04,VALID,997.078,VALID,0,VALID,92.9364,VALID,0,VALID,23.5433,VALID,52,VALID,0.41875,
2011-11-04, 00:54:04,VALID,997.081,VALID,0,VALID,92.7533,VALID,0,VALID,23.5451,VALID,53,VALID,0.623828,
2011-11-04, 00:55:04,VALID,997.086,VALID,0,VALID,92.6541,VALID,0,VALID,23.5646,VALID,62,VALID,0.71875,
2011-11-04, 00:56:04,VALID,997.074,VALID,0,VALID,92.471,VALID,0,VALID,23.5646,VALID,64,VALID,0.647656,
2011-11-04, 00:57:04,VALID,997.079,VALID,0,VALID,92.3794,VALID,0,VALID,23.5823,VALID,64,VALID,0.588281,
2011-11-04, 00:58:04,VALID,997.072,VALID,0,VALID,92.2803,VALID,0,VALID,23.6019,VALID,64,VALID,0.567187,
2011-11-04, 00:59:04,VALID,997.061,VALID,0,VALID,92.1506,VALID,0,VALID,23.6232,VALID,64,VALID,0.433594,
2011-11-04, 01:00:05,VALID,997.028,VALID,0,VALID,92.0437,VALID,0,VALID,23.6214,VALID,64,VALID,0.204297,
2011-11-04, 01:01:04,VALID,997.031,VALID,0,VALID,91.9064,VALID,0,VALID,23.6232,VALID,64,VALID,0,
2011-11-04, 01:02:04,VALID,997.008,VALID,0,VALID,91.8377,VALID,0,VALID,23.6036,VALID,64,VALID,0,
2011-11-04, 01:03:05,VALID,997.016,VALID,0,VALID,91.7462,VALID,0,VALID,23.5646,VALID,64,VALID,0,
2011-11-04, 01:04:05,VALID,997.03,VALID,0,VALID,91.7843,VALID,0,VALID,23.5238,VALID,64,VALID,0,
2011-11-04, 01:05:05,VALID,996.999,VALID,0,VALID,91.8377,VALID,0,VALID,23.5256,VALID,64,VALID,0,
2011-11-04, 01:06:05,VALID,997.026,VALID,0,VALID,91.8988,VALID,0,VALID,23.5061,VALID,64,VALID,0,
2011-11-04, 01:07:05,VALID,997.027,VALID,0,VALID,91.8148,VALID,0,VALID,23.428,VALID,64,VALID,0,
2011-11-04, 01:08:05,VALID,997.017,VALID,0,VALID,91.8377,VALID,0.104696,VALID,23.3677,VALID,64,VALID,0,
2011-11-04, 01:09:05,VALID,997.015,VALID,0,VALID,91.9827,VALID,0,VALID,23.3287,VALID,64,VALID,0,
2011-11-04, 01:10:05,VALID,996.997,VALID,0,VALID,92.1811,VALID,0,VALID,23.3305,VALID,64,VALID,0,
2011-11-04, 01:11:05,VALID,997.003,VALID,0,VALID,92.3871,VALID,0,VALID,23.3092,VALID,64,VALID,0,
2011-11-04, 01:12:05,VALID,997.02,VALID,0,VALID,92.5244,VALID,0,VALID,23.2897,VALID,64,VALID,0,
2011-11-04, 01:13:05,VALID,997.009,VALID,0,VALID,92.6312,VALID,0,VALID,23.2915,VALID,64,VALID,0,
2011-11-04, 01:14:05,VALID,997.004,VALID,0,VALID,92.7457,VALID,0,VALID,23.2719,VALID,64,VALID,0,
2011-11-04, 01:15:05,VALID,996.996,VALID,0,VALID,92.8754,VALID,0,VALID,23.2915,VALID,64,VALID,0,
2011-11-04, 01:16:05,VALID,996.984,VALID,0,VALID,92.9898,VALID,0,VALID,23.2915,VALID,64,VALID,0,
2011-11-04, 01:17:05,VALID,996.993,VALID,0,VALID,93.0661,VALID,0,VALID,23.311,VALID,64,VALID,0,
2011-11-04, 01:18:05,VALID,997.008,VALID,0,VALID,93.1729,VALID,0,VALID,23.35,VALID,64,VALID,0,
2011-11-04, 01:19:05,VALID,997.03,VALID,0,VALID,93.2263,VALID,0,VALID,23.3092,VALID,64,VALID,0,
2011-11-04, 01:20:05,VALID,997.05,VALID,0,VALID,93.2416,VALID,0,VALID,23.3092,VALID,64,VALID,0,
2011-11-04, 01:21:05,VALID,997.078,VALID,0,VALID,93.2721,VALID,0.104696,VALID,23.2897,VALID,64,VALID,0,
2011-11-04, 01:22:05,VALID,997.068,VALID,0,VALID,93.295,VALID,0,VALID,23.3092,VALID,64,VALID,0,
2011-11-04, 01:23:05,VALID,997.078,VALID,0,VALID,93.3255,VALID,0,VALID,23.3287,VALID,64,VALID,0,
2011-11-04, 01:24:05,VALID,997.073,VALID,0,VALID,93.3789,VALID,0.104696,VALID,23.3482,VALID,64,VALID,0,
2011-11-04, 01:25:05,VALID,997.051,VALID,0,VALID,93.3789,VALID,0,VALID,23.3482,VALID,64,VALID,0,
2011-11-04, 01:26:05,VALID,997.109,VALID,0,VALID,93.3713,VALID,0,VALID,23.3695,VALID,64,VALID,0,
2011-11-04, 01:27:05,VALID,997.094,VALID,0,VALID,93.3866,VALID,0,VALID,23.35,VALID,64,VALID,0,
2011-11-04, 01:28:05,VALID,997.067,VALID,0,VALID,93.3713,VALID,0,VALID,23.3092,VALID,64,VALID,0,
2011-11-04, 01:29:05,VALID,997.091,VALID,0,VALID,93.3484,VALID,0,VALID,23.311,VALID,64,VALID,0,
2011-11-04, 01:30:05,VALID,997.091,VALID,0,VALID,93.3026,VALID,0,VALID,23.2719,VALID,64,VALID,0,
2011-11-04, 01:31:05,VALID,997.03,VALID,0,VALID,93.356,VALID,0,VALID,23.2719,VALID,64,VALID,0,
2011-11-04, 01:32:05,VALID,997.003,VALID,0,VALID,93.3866,VALID,0.104696,VALID,23.2507,VALID,64,VALID,0,
2011-11-04, 01:33:05,VALID,997.016,VALID,0,VALID,93.3942,VALID,0.104696,VALID,23.2134,VALID,64,VALID,0,
2011-11-04, 01:34:05,VALID,997.032,VALID,0,VALID,93.4018,VALID,0.104696,VALID,23.1921,VALID,64,VALID,0,
2011-11-04, 01:35:05,VALID,997,VALID,0,VALID,93.44,VALID,0,VALID,23.1726,VALID,64,VALID,0,
2011-11-04, 01:36:05,VALID,996.976,VALID,0,VALID,93.4552,VALID,0,VALID,23.1744,VALID,64,VALID,0,
2011-11-04, 01:37:05,VALID,996.992,VALID,0,VALID,93.4781,VALID,0.104696,VALID,23.1531,VALID,64,VALID,0,
2011-11-04, 01:38:05,VALID,996.973,VALID,0,VALID,93.5315,VALID,0,VALID,23.1354,VALID,64,VALID,0,
2011-11-04, 01:39:05,VALID,996.984,VALID,0,VALID,93.5315,VALID,0,VALID,23.1141,VALID,64,VALID,0,
2011-11-04, 01:40:05,VALID,996.987,VALID,0,VALID,93.5544,VALID,0,VALID,23.1159,VALID,64,VALID,0,
2011-11-04, 01:41:05,VALID,996.949,VALID,0,VALID,93.562,VALID,0,VALID,23.0751,VALID,64,VALID,0,
2011-11-04, 01:42:05,VALID,996.902,VALID,0,VALID,93.5773,VALID,0,VALID,23.1159,VALID,64,VALID,0,
2011-11-04, 01:43:05,VALID,996.881,VALID,0,VALID,93.6002,VALID,0,VALID,23.1159,VALID,64,VALID,0,
2011-11-04, 01:44:05,VALID,996.851,VALID,0,VALID,93.6383,VALID,0,VALID,23.1354,VALID,64,VALID,0,
2011-11-04, 01:45:05,VALID,996.84,VALID,0,VALID,93.6841,VALID,0,VALID,23.1531,VALID,64,VALID,0,
2011-11-04, 01:46:05,VALID,996.829,VALID,0,VALID,93.7146,VALID,0,VALID,23.1744,VALID,64,VALID,0,
2011-11-04, 01:47:05,VALID,996.843,VALID,0,VALID,93.7528,VALID,0,VALID,23.1939,VALID,64,VALID,0.504687,
2011-11-04, 01:48:05,VALID,996.859,VALID,0,VALID,93.7451,VALID,0,VALID,23.1939,VALID,64,VALID,0.576953,
2011-11-04, 01:49:05,VALID,996.857,VALID,0,VALID,93.7146,VALID,0,VALID,23.1939,VALID,64,VALID,0.611328,
2011-11-04, 01:50:05,VALID,996.839,VALID,0,VALID,93.6917,VALID,0,VALID,23.1921,VALID,64,VALID,0.410156,
2011-11-04, 01:51:05,VALID,996.844,VALID,0,VALID,93.646,VALID,0,VALID,23.1939,VALID,64,VALID,0,
2011-11-04, 01:52:05,VALID,996.848,VALID,0,VALID,93.5468,VALID,0,VALID,23.1159,VALID,64,VALID,0,
2011-11-04, 01:53:05,VALID,996.884,VALID,0,VALID,93.4476,VALID,0,VALID,23.0946,VALID,64,VALID,0,
2011-11-04, 01:54:05,VALID,996.87,VALID,0,VALID,93.4171,VALID,0,VALID,23.0946,VALID,64,VALID,0,
2011-11-04, 01:55:05,VALID,996.862,VALID,0,VALID,93.4247,VALID,0,VALID,23.0751,VALID,64,VALID,0,
2011-11-04, 01:56:05,VALID,996.858,VALID,0,VALID,93.4171,VALID,0,VALID,23.0556,VALID,64,VALID,0.0675781,
2011-11-04, 01:57:05,VALID,996.856,VALID,0,VALID,93.4705,VALID,0,VALID,23.0769,VALID,64,VALID,0.553516,
2011-11-04, 01:58:05,VALID,996.887,VALID,0,VALID,93.5315,VALID,0,VALID,23.0769,VALID,64,VALID,0.349219,
2011-11-04, 01:59:05,VALID,996.86,VALID,0,VALID,93.562,VALID,0,VALID,23.0769,VALID,64,VALID,0.362891,
2011-11-04, 02:00:05,VALID,996.872,VALID,0,VALID,93.5773,VALID,0,VALID,23.0573,VALID,64,VALID,0.19375,
2011-11-04, 02:01:05,VALID,996.892,VALID,0,VALID,93.6383,VALID,0,VALID,23.0378,VALID,64,VALID,0.227344,
2011-11-04, 02:02:05,VALID,996.898,VALID,0,VALID,93.6841,VALID,0,VALID,22.9776,VALID,64,VALID,0.262109,
2011-11-04, 02:03:05,VALID,996.896,VALID,0,VALID,93.6994,VALID,0,VALID,22.9793,VALID,64,VALID,0.0195313,
2011-11-04, 02:04:05,VALID,996.852,VALID,0,VALID,93.7451,VALID,0,VALID,22.9988,VALID,64,VALID,0,
2011-11-04, 02:05:05,VALID,996.863,VALID,0,VALID,93.7833,VALID,0,VALID,22.9988,VALID,64,VALID,0,
2011-11-04, 02:06:05,VALID,996.864,VALID,0,VALID,93.7985,VALID,0,VALID,22.9598,VALID,64,VALID,0,
2011-11-04, 02:07:05,VALID,996.858,VALID,0,VALID,93.8367,VALID,0,VALID,22.9598,VALID,26,VALID,0.978906,
2011-11-04, 02:08:05,VALID,996.82,VALID,0,VALID,93.8672,VALID,0,VALID,22.9403,VALID,22,VALID,1.27539,
2011-11-04, 02:09:05,VALID,996.83,VALID,0,VALID,93.8596,VALID,0,VALID,22.8818,VALID,22,VALID,0.873828,
2011-11-04, 02:10:05,VALID,996.84,VALID,0,VALID,93.8672,VALID,0,VALID,22.8427,VALID,22,VALID,0.755078,
2011-11-04, 02:11:05,VALID,996.859,VALID,0,VALID,93.852,VALID,0,VALID,22.8037,VALID,22,VALID,0.730469,
2011-11-04, 02:12:05,VALID,996.852,VALID,0,VALID,93.8748,VALID,0,VALID,22.7842,VALID,22,VALID,0.701172,
2011-11-04, 02:13:05,VALID,996.851,VALID,0,VALID,93.852,VALID,0,VALID,22.7842,VALID,22,VALID,0.619531,
2011-11-04, 02:14:05,VALID,996.849,VALID,0,VALID,93.8748,VALID,0,VALID,22.7435,VALID,22,VALID,0.613672,
2011-11-04, 02:15:05,VALID,996.81,VALID,0,VALID,93.8901,VALID,0,VALID,22.7842,VALID,22,VALID,0.772266,
2011-11-04, 02:16:05,VALID,996.809,VALID,0,VALID,93.913,VALID,0,VALID,22.8427,VALID,22,VALID,0.794531,
2011-11-04, 02:17:05,VALID,996.819,VALID,0,VALID,93.9435,VALID,0,VALID,22.8623,VALID,37,VALID,0.905469,
2011-11-04, 02:18:05,VALID,996.768,VALID,0,VALID,93.9664,VALID,0,VALID,22.8818,VALID,41,VALID,0.926172,
2011-11-04, 02:19:05,VALID,996.738,VALID,0,VALID,93.9817,VALID,0,VALID,22.8818,VALID,51,VALID,1.05234,
2011-11-04, 02:20:05,VALID,996.721,VALID,0,VALID,93.974,VALID,0,VALID,22.8623,VALID,60,VALID,1.14648,
2011-11-04, 02:21:05,VALID,996.702,VALID,0,VALID,93.9588,VALID,0,VALID,22.8037,VALID,64,VALID,0.999609,
2011-11-04, 02:22:05,VALID,996.709,VALID,0,VALID,93.9206,VALID,0,VALID,22.7452,VALID,75,VALID,0.989453,
2011-11-04, 02:23:05,VALID,996.71,VALID,0,VALID,93.9054,VALID,0,VALID,22.7257,VALID,77,VALID,0.964063,
2011-11-04, 02:24:05,VALID,996.714,VALID,0,VALID,93.8901,VALID,0,VALID,22.7062,VALID,81,VALID,0.812109,
2011-11-04, 02:25:05,VALID,996.708,VALID,0,VALID,93.8901,VALID,0,VALID,22.6867,VALID,81,VALID,0.49375,
2011-11-04, 02:26:05,VALID,996.703,VALID,0,VALID,93.8825,VALID,0,VALID,22.6672,VALID,81,VALID,0.287109,
2011-11-04, 02:27:05,VALID,996.7,VALID,0,VALID,93.8748,VALID,0,VALID,22.6477,VALID,81,VALID,0,
2011-11-04, 02:28:05,VALID,996.707,VALID,0,VALID,93.8748,VALID,0,VALID,22.6282,VALID,81,VALID,0.00742187,
2011-11-04, 02:29:05,VALID,996.731,VALID,0,VALID,93.852,VALID,0,VALID,22.6087,VALID,81,VALID,0.00117188,
2011-11-04, 02:30:05,VALID,996.738,VALID,0,VALID,93.8596,VALID,0,VALID,22.5892,VALID,81,VALID,0,
2011-11-04, 02:31:05,VALID,996.758,VALID,0,VALID,93.8672,VALID,0,VALID,22.5696,VALID,77,VALID,0.748438,
2011-11-04, 02:32:05,VALID,996.753,VALID,0,VALID,93.8825,VALID,0,VALID,22.5892,VALID,75,VALID,0.708984,
2011-11-04, 02:33:05,VALID,996.732,VALID,0,VALID,93.9054,VALID,0,VALID,22.6282,VALID,75,VALID,0.503906,
2011-11-04, 02:34:05,VALID,996.757,VALID,0,VALID,93.9435,VALID,0,VALID,22.6264,VALID,75,VALID,0.621484,
2011-11-04, 02:35:05,VALID,996.763,VALID,0,VALID,93.9664,VALID,0,VALID,22.6867,VALID,75,VALID,0.659766,
2011-11-04, 02:36:05,VALID,996.727,VALID,0,VALID,93.9969,VALID,0,VALID,22.685,VALID,66,VALID,0.580859,
2011-11-04, 02:37:05,VALID,996.728,VALID,0,VALID,94.0198,VALID,0,VALID,22.7257,VALID,66,VALID,0.503125,
2011-11-04, 02:38:05,VALID,996.686,VALID,0,VALID,94.0274,VALID,0,VALID,22.7452,VALID,66,VALID,0.334766,
2011-11-04, 02:39:05,VALID,996.701,VALID,0,VALID,94.0274,VALID,0,VALID,22.7452,VALID,66,VALID,0.317969,
2011-11-04, 02:40:05,VALID,996.692,VALID,0,VALID,94.0427,VALID,0,VALID,22.7257,VALID,33,VALID,0.921484,
2011-11-04, 02:41:05,VALID,996.688,VALID,0,VALID,94.0351,VALID,0,VALID,22.6867,VALID,5,VALID,0.802734,
2011-11-04, 02:42:05,VALID,996.656,VALID,0,VALID,94.0122,VALID,0,VALID,22.646,VALID,5,VALID,0.544922,
2011-11-04, 02:43:05,VALID,996.641,VALID,0,VALID,94.0122,VALID,0,VALID,22.6282,VALID,5,VALID,0.220313,
2011-11-04, 02:44:05,VALID,996.641,VALID,0,VALID,94.0122,VALID,0,VALID,22.6069,VALID,5,VALID,0.248437,
2011-11-04, 02:45:05,VALID,996.639,VALID,0,VALID,94.0122,VALID,0,VALID,22.6087,VALID,5,VALID,0.344141,
2011-11-04, 02:46:05,VALID,996.607,VALID,0,VALID,93.9969,VALID,0,VALID,22.6282,VALID,5,VALID,0.330859,
2011-11-04, 02:47:05,VALID,996.577,VALID,0,VALID,94.0198,VALID,0,VALID,22.6884,VALID,5,VALID,0.371484,
2011-11-04, 02:48:05,VALID,996.574,VALID,0,VALID,94.0122,VALID,0,VALID,22.7062,VALID,295,VALID,0.555859,
2011-11-04, 02:49:05,VALID,996.561,VALID,0,VALID,94.0351,VALID,0,VALID,22.7842,VALID,279,VALID,0.573438,
2011-11-04, 02:50:05,VALID,996.554,VALID,0,VALID,94.058,VALID,0,VALID,22.8232,VALID,252,VALID,0.740234,
2011-11-04, 02:51:05,VALID,996.557,VALID,0,VALID,94.0732,VALID,0,VALID,22.8623,VALID,250,VALID,0.508984,
2011-11-04, 02:52:05,VALID,996.587,VALID,0,VALID,94.0808,VALID,0,VALID,22.8623,VALID,250,VALID,0.560938,
2011-11-04, 02:53:05,VALID,996.609,VALID,0,VALID,94.0961,VALID,0,VALID,22.9208,VALID,250,VALID,0.514844,
2011-11-04, 02:54:05,VALID,996.61,VALID,0,VALID,94.0808,VALID,0,VALID,22.9598,VALID,250,VALID,0.363672,
2011-11-04, 02:55:05,VALID,996.614,VALID,0,VALID,94.1037,VALID,0,VALID,22.9988,VALID,250,VALID,0,
2011-11-04, 02:56:05,VALID,996.583,VALID,0,VALID,94.0885,VALID,0,VALID,23.0183,VALID,252,VALID,0,
2011-11-04, 02:57:05,VALID,996.608,VALID,0,VALID,94.0961,VALID,0,VALID,22.9988,VALID,252,VALID,0,
2011-11-04, 02:58:05,VALID,996.612,VALID,0,VALID,94.0732,VALID,0,VALID,22.9598,VALID,252,VALID,0,
2011-11-04, 02:59:05,VALID,996.611,VALID,0,VALID,94.0351,VALID,0,VALID,22.9013,VALID,252,VALID,0,
2011-11-04, 03:00:05,VALID,996.611,VALID,0,VALID,94.0274,VALID,0,VALID,22.8818,VALID,252,VALID,0,
2011-11-04, 03:01:05,VALID,996.598,VALID,0,VALID,93.9817,VALID,0,VALID,22.841,VALID,252,VALID,0,
2011-11-04, 03:02:05,VALID,996.606,VALID,0,VALID,93.9893,VALID,0,VALID,22.8818,VALID,238,VALID,0,
2011-11-04, 03:03:05,VALID,996.62,VALID,0,VALID,93.9893,VALID,0,VALID,22.9013,VALID,172,VALID,0.186719,
2011-11-04, 03:04:05,VALID,996.635,VALID,0,VALID,93.974,VALID,0,VALID,22.9793,VALID,161,VALID,1.22422,
2011-11-04, 03:05:05,VALID,996.614,VALID,0,VALID,93.9435,VALID,0,VALID,23.0573,VALID,161,VALID,1.05273,
2011-11-04, 03:06:05,VALID,996.61,VALID,0,VALID,93.9664,VALID,0,VALID,23.1141,VALID,161,VALID,1.03594,
2011-11-04, 03:07:05,VALID,996.579,VALID,0,VALID,93.9359,VALID,0,VALID,23.1744,VALID,159,VALID,0.945313,
2011-11-04, 03:08:05,VALID,996.585,VALID,0,VALID,93.8748,VALID,0,VALID,23.1744,VALID,159,VALID,0.852344,
2011-11-04, 03:09:05,VALID,996.551,VALID,0,VALID,93.7985,VALID,0,VALID,23.1744,VALID,159,VALID,0.772656,
2011-11-04, 03:10:05,VALID,996.55,VALID,0,VALID,93.6841,VALID,0,VALID,23.1549,VALID,159,VALID,0.673047,
2011-11-04, 03:11:05,VALID,996.546,VALID,0,VALID,93.5315,VALID,0,VALID,23.1141,VALID,159,VALID,0.610937,
2011-11-04, 03:12:05,VALID,996.549,VALID,0,VALID,93.4247,VALID,0,VALID,23.1159,VALID,159,VALID,0.559375,
2011-11-04, 03:13:05,VALID,996.576,VALID,0,VALID,93.3255,VALID,0,VALID,23.1354,VALID,159,VALID,0.469141,
2011-11-04, 03:14:05,VALID,996.558,VALID,0,VALID,93.2263,VALID,0,VALID,23.1354,VALID,159,VALID,0.45,
2011-11-04, 03:15:05,VALID,996.583,VALID,0,VALID,93.1271,VALID,0,VALID,23.1141,VALID,159,VALID,0.420312,
2011-11-04, 03:16:05,VALID,996.612,VALID,0,VALID,93.0737,VALID,0,VALID,23.0946,VALID,159,VALID,0.585156,
2011-11-04, 03:17:05,VALID,996.595,VALID,0,VALID,92.9898,VALID,0,VALID,23.1141,VALID,159,VALID,0.564062,
2011-11-04, 03:18:05,VALID,996.603,VALID,0,VALID,92.9593,VALID,0,VALID,23.1549,VALID,159,VALID,0.555469,
2011-11-04, 03:19:05,VALID,996.595,VALID,0,VALID,92.9364,VALID,0,VALID,23.1549,VALID,159,VALID,0.452734,
2011-11-04, 03:20:05,VALID,996.62,VALID,0,VALID,92.8525,VALID,0,VALID,23.1354,VALID,159,VALID,0.101563,
2011-11-04, 03:21:05,VALID,996.608,VALID,0,VALID,92.8296,VALID,0,VALID,23.1159,VALID,159,VALID,0,
2011-11-04, 03:22:05,VALID,996.643,VALID,0,VALID,92.7991,VALID,0,VALID,23.0751,VALID,159,VALID,0,
2011-11-04, 03:23:05,VALID,996.69,VALID,0,VALID,92.8906,VALID,0,VALID,23.0769,VALID,159,VALID,0,
2011-11-04, 03:24:05,VALID,996.684,VALID,0,VALID,92.944,VALID,0,VALID,23.0769,VALID,159,VALID,0,
2011-11-04, 03:25:05,VALID,996.717,VALID,0,VALID,92.9517,VALID,0,VALID,23.0378,VALID,159,VALID,0,
2011-11-04, 03:26:05,VALID,996.705,VALID,0,VALID,92.9745,VALID,0,VALID,23.0183,VALID,159,VALID,0,
2011-11-04, 03:27:05,VALID,996.744,VALID,0,VALID,92.8983,VALID,0,VALID,22.9598,VALID,159,VALID,0,
2011-11-04, 03:28:05,VALID,996.785,VALID,0,VALID,92.8067,VALID,0,VALID,22.8818,VALID,159,VALID,0,
2011-11-04, 03:29:05,VALID,996.802,VALID,0,VALID,92.8143,VALID,0,VALID,22.8427,VALID,159,VALID,0,
2011-11-04, 03:30:05,VALID,996.796,VALID,0,VALID,92.822,VALID,0,VALID,22.7842,VALID,159,VALID,0,
2011-11-04, 03:31:05,VALID,996.847,VALID,0,VALID,92.8448,VALID,0,VALID,22.7647,VALID,159,VALID,0,
2011-11-04, 03:32:05,VALID,996.863,VALID,0,VALID,92.9135,VALID,0,VALID,22.786,VALID,159,VALID,0,
2011-11-04, 03:33:05,VALID,996.883,VALID,0,VALID,92.9593,VALID,0,VALID,22.7062,VALID,159,VALID,0,
2011-11-04, 03:34:05,VALID,996.884,VALID,0,VALID,92.9974,VALID,0,VALID,22.6672,VALID,159,VALID,0,
2011-11-04, 03:35:05,VALID,996.886,VALID,0,VALID,93.0127,VALID,0,VALID,22.6282,VALID,159,VALID,0,
2011-11-04, 03:36:05,VALID,996.943,VALID,0,VALID,93.028,VALID,0,VALID,22.5696,VALID,159,VALID,0,
2011-11-04, 03:37:05,VALID,996.953,VALID,0,VALID,93.1043,VALID,0,VALID,22.5323,VALID,159,VALID,0,
2011-11-04, 03:38:05,VALID,996.929,VALID,0,VALID,93.1348,VALID,0,VALID,22.4526,VALID,159,VALID,0,
2011-11-04, 03:39:05,VALID,996.93,VALID,0,VALID,93.1882,VALID,0,VALID,22.4136,VALID,159,VALID,0,
2011-11-04, 03:40:05,VALID,996.918,VALID,0,VALID,93.3026,VALID,0,VALID,22.3941,VALID,159,VALID,0,
2011-11-04, 03:41:05,VALID,996.93,VALID,0,VALID,93.4094,VALID,0,VALID,22.3941,VALID,159,VALID,0,
2011-11-04, 03:42:05,VALID,996.938,VALID,0,VALID,93.5163,VALID,0,VALID,22.4153,VALID,159,VALID,0,
2011-11-04, 03:43:05,VALID,996.938,VALID,0,VALID,93.5849,VALID,0,VALID,22.3746,VALID,159,VALID,0,
2011-11-04, 03:44:05,VALID,996.918,VALID,0,VALID,93.6383,VALID,0,VALID,22.3941,VALID,159,VALID,0,
2011-11-04, 03:45:04,VALID,996.906,VALID,0,VALID,93.6841,VALID,0,VALID,22.4331,VALID,159,VALID,0,
2011-11-04, 03:46:04,VALID,996.939,VALID,0,VALID,93.768,VALID,0,VALID,22.4721,VALID,159,VALID,0,
2011-11-04, 03:47:04,VALID,996.943,VALID,0,VALID,93.8138,VALID,0,VALID,22.5306,VALID,159,VALID,0,
2011-11-04, 03:48:04,VALID,996.959,VALID,0,VALID,93.8825,VALID,0,VALID,22.5892,VALID,159,VALID,0,
2011-11-04, 03:49:04,VALID,996.971,VALID,0,VALID,93.913,VALID,0,VALID,22.6494,VALID,159,VALID,0,
2011-11-04, 03:50:04,VALID,996.956,VALID,0,VALID,93.9511,VALID,0,VALID,22.6477,VALID,159,VALID,0,
2011-11-04, 03:51:04,VALID,996.968,VALID,0,VALID,93.9588,VALID,0,VALID,22.6282,VALID,159,VALID,0,
2011-11-04, 03:52:04,VALID,996.995,VALID,0,VALID,94.0122,VALID,0,VALID,22.6689,VALID,159,VALID,0,
2011-11-04, 03:53:04,VALID,996.997,VALID,0,VALID,94.0351,VALID,0,VALID,22.6282,VALID,159,VALID,0,